Year,Month,Day,Hour,Minute,Value (Times are PST for temperature in C)
2021,04,18,00,00,16.40
2021,04,18,00,01,16.30
2021,04,18,00,02,16.30
2021,04,18,00,03,16.20
2021,04,18,00,04,16.00
2021,04,18,00,05,15.90
2021,04,18,00,06,15.80
2021,04,18,00,07,15.70
2021,04,18,00,08,15.60
2021,04,18,00,09,15.50
2021,04,18,00,10,15.40
2021,04,18,00,11,15.30
2021,04,18,00,12,15.20
2021,04,18,00,13,15.10
2021,04,18,00,14,15.00
2021,04,18,00,15,14.90
2021,04,18,00,16,14.80
2021,04,18,00,17,14.70
2021,04,18,00,18,14.60
2021,04,18,00,19,14.50
2021,04,18,00,20,14.50
2021,04,18,00,21,14.40
2021,04,18,00,22,14.30
2021,04,18,00,23,14.30
2021,04,18,00,24,14.20
2021,04,18,00,25,14.20
2021,04,18,00,26,14.10
2021,04,18,00,27,14.10
2021,04,18,00,28,14.00
2021,04,18,00,29,14.00
2021,04,18,00,30,13.90
2021,04,18,00,31,13.90
2021,04,18,00,32,13.90
2021,04,18,00,33,13.90
2021,04,18,00,34,13.90
2021,04,18,00,35,13.90
2021,04,18,00,36,13.90
2021,04,18,00,37,13.90
2021,04,18,00,38,13.80
2021,04,18,00,39,13.80
2021,04,18,00,40,13.80
2021,04,18,00,41,13.90
2021,04,18,00,42,13.90
2021,04,18,00,43,13.90
2021,04,18,00,44,14.00
2021,04,18,00,45,14.00
2021,04,18,00,46,14.10
2021,04,18,00,47,14.10
2021,04,18,00,48,14.10
2021,04,18,00,49,14.10
2021,04,18,00,50,14.10
2021,04,18,00,51,14.20
2021,04,18,00,52,14.10
2021,04,18,00,53,14.10
2021,04,18,00,54,14.10
2021,04,18,00,55,14.20
2021,04,18,00,56,14.20
2021,04,18,00,57,14.10
2021,04,18,00,58,14.10
2021,04,18,00,59,14.10
2021,04,18,01,00,14.10
2021,04,18,01,01,14.10
2021,04,18,01,02,14.10
2021,04,18,01,03,14.10
2021,04,18,01,04,14.00
2021,04,18,01,05,14.00
2021,04,18,01,06,13.90
2021,04,18,01,07,13.90
2021,04,18,01,08,13.90
2021,04,18,01,09,13.90
2021,04,18,01,10,13.90
2021,04,18,01,11,14.00
2021,04,18,01,12,14.00
2021,04,18,01,13,14.10
2021,04,18,01,14,14.10
2021,04,18,01,15,14.10
2021,04,18,01,16,14.20
2021,04,18,01,17,14.20
2021,04,18,01,18,14.30
2021,04,18,01,19,14.30
2021,04,18,01,20,14.30
2021,04,18,01,21,14.30
2021,04,18,01,22,14.40
2021,04,18,01,23,14.40
2021,04,18,01,24,14.40
2021,04,18,01,25,14.40
2021,04,18,01,26,14.40
2021,04,18,01,27,14.40
2021,04,18,01,28,14.40
2021,04,18,01,29,14.40
2021,04,18,01,30,14.30
2021,04,18,01,31,14.30
2021,04,18,01,32,14.30
2021,04,18,01,33,14.30
2021,04,18,01,34,14.20
2021,04,18,01,35,14.20
2021,04,18,01,36,14.10
2021,04,18,01,37,14.10
2021,04,18,01,38,14.10
2021,04,18,01,39,14.00
2021,04,18,01,40,14.00
2021,04,18,01,41,13.90
2021,04,18,01,42,13.90
2021,04,18,01,43,13.90
2021,04,18,01,44,13.80
2021,04,18,01,45,13.80
2021,04,18,01,46,13.80
2021,04,18,01,47,13.70
2021,04,18,01,48,13.70
2021,04,18,01,49,13.70
2021,04,18,01,50,13.70
2021,04,18,01,51,13.70
2021,04,18,01,52,13.60
2021,04,18,01,53,13.60
2021,04,18,01,54,13.60
2021,04,18,01,55,13.50
2021,04,18,01,56,13.50
2021,04,18,01,57,13.40
2021,04,18,01,58,13.40
2021,04,18,01,59,13.30
2021,04,18,02,00,13.20
2021,04,18,02,01,13.20
2021,04,18,02,02,13.10
2021,04,18,02,03,13.00
2021,04,18,02,04,12.90
2021,04,18,02,05,12.80
2021,04,18,02,06,12.80
2021,04,18,02,07,12.70
2021,04,18,02,08,12.60
2021,04,18,02,09,12.50
2021,04,18,02,10,12.40
2021,04,18,02,11,12.30
2021,04,18,02,12,12.30
2021,04,18,02,13,12.20
2021,04,18,02,14,12.20
2021,04,18,02,15,12.10
2021,04,18,02,16,12.10
2021,04,18,02,17,12.00
2021,04,18,02,18,12.00
2021,04,18,02,19,11.90
2021,04,18,02,20,11.90
2021,04,18,02,21,11.90
2021,04,18,02,22,11.80
2021,04,18,02,23,11.80
2021,04,18,02,24,11.80
2021,04,18,02,25,11.70
2021,04,18,02,26,11.70
2021,04,18,02,27,11.60
2021,04,18,02,28,11.60
2021,04,18,02,29,11.50
2021,04,18,02,30,11.50
2021,04,18,02,31,11.40
2021,04,18,02,32,11.40
2021,04,18,02,33,11.40
2021,04,18,02,34,11.40
2021,04,18,02,35,11.30
2021,04,18,02,36,11.30
2021,04,18,02,37,11.30
2021,04,18,02,38,11.30
2021,04,18,02,39,11.30
2021,04,18,02,40,11.30
2021,04,18,02,41,11.30
2021,04,18,02,42,11.20
2021,04,18,02,43,11.20
2021,04,18,02,44,11.20
2021,04,18,02,45,11.20
2021,04,18,02,46,11.20
2021,04,18,02,47,11.20
2021,04,18,02,48,11.10
2021,04,18,02,49,11.10
2021,04,18,02,50,11.10
2021,04,18,02,51,11.10
2021,04,18,02,52,11.10
2021,04,18,02,53,11.10
2021,04,18,02,54,11.10
2021,04,18,02,55,11.10
2021,04,18,02,56,11.10
2021,04,18,02,57,11.10
2021,04,18,02,58,11.10
2021,04,18,02,59,11.10
2021,04,18,03,00,11.00
2021,04,18,03,01,11.00
2021,04,18,03,02,11.00
2021,04,18,03,03,11.00
2021,04,18,03,04,10.90
2021,04,18,03,05,10.90
2021,04,18,03,06,11.00
2021,04,18,03,07,11.00
2021,04,18,03,08,11.00
2021,04,18,03,09,11.00
2021,04,18,03,10,11.10
2021,04,18,03,11,11.10
2021,04,18,03,12,11.10
2021,04,18,03,13,11.10
2021,04,18,03,14,11.10
2021,04,18,03,15,11.10
2021,04,18,03,16,11.20
2021,04,18,03,17,11.20
2021,04,18,03,18,11.20
2021,04,18,03,19,11.20
2021,04,18,03,20,11.20
2021,04,18,03,21,11.20
2021,04,18,03,22,11.30
2021,04,18,03,23,11.30
2021,04,18,03,24,11.30
2021,04,18,03,25,11.30
2021,04,18,03,26,11.30
2021,04,18,03,27,11.30
2021,04,18,03,28,11.30
2021,04,18,03,29,11.30
2021,04,18,03,30,11.30
2021,04,18,03,31,11.30
2021,04,18,03,32,11.30
2021,04,18,03,33,11.30
2021,04,18,03,34,11.30
2021,04,18,03,35,11.30
2021,04,18,03,36,11.20
2021,04,18,03,37,11.20
2021,04,18,03,38,11.20
2021,04,18,03,39,11.20
2021,04,18,03,40,11.20
2021,04,18,03,41,11.20
2021,04,18,03,42,11.20
2021,04,18,03,43,11.20
2021,04,18,03,44,11.20
2021,04,18,03,45,11.20
2021,04,18,03,46,11.30
2021,04,18,03,47,11.30
2021,04,18,03,48,11.30
2021,04,18,03,49,11.30
2021,04,18,03,50,11.30
2021,04,18,03,51,11.30
2021,04,18,03,52,11.30
2021,04,18,03,53,11.30
2021,04,18,03,54,11.30
2021,04,18,03,55,11.30
2021,04,18,03,56,11.30
2021,04,18,03,57,11.30
2021,04,18,03,58,11.40
2021,04,18,03,59,11.40
2021,04,18,04,00,11.40
2021,04,18,04,01,11.40
2021,04,18,04,02,11.50
2021,04,18,04,03,11.50
2021,04,18,04,04,11.60
2021,04,18,04,05,11.60
2021,04,18,04,06,11.60
2021,04,18,04,07,11.60
2021,04,18,04,08,11.60
2021,04,18,04,09,11.70
2021,04,18,04,10,11.70
2021,04,18,04,11,11.70
2021,04,18,04,12,11.70
2021,04,18,04,13,11.70
2021,04,18,04,14,11.70
2021,04,18,04,15,11.70
2021,04,18,04,16,11.70
2021,04,18,04,17,11.70
2021,04,18,04,18,11.70
2021,04,18,04,19,11.70
2021,04,18,04,20,11.70
2021,04,18,04,21,11.70
2021,04,18,04,22,11.70
2021,04,18,04,23,11.70
2021,04,18,04,24,11.60
2021,04,18,04,25,11.60
2021,04,18,04,26,11.60
2021,04,18,04,27,11.60
2021,04,18,04,28,11.60
2021,04,18,04,29,11.60
2021,04,18,04,30,11.50
2021,04,18,04,31,11.50
2021,04,18,04,32,11.50
2021,04,18,04,33,11.50
2021,04,18,04,34,11.50
2021,04,18,04,35,11.50
2021,04,18,04,36,11.50
2021,04,18,04,37,11.50
2021,04,18,04,38,11.50
2021,04,18,04,39,11.50
2021,04,18,04,40,11.50
2021,04,18,04,41,11.50
2021,04,18,04,42,11.50
2021,04,18,04,43,11.40
2021,04,18,04,44,11.40
2021,04,18,04,45,11.40
2021,04,18,04,46,11.40
2021,04,18,04,47,11.40
2021,04,18,04,48,11.40
2021,04,18,04,49,11.40
2021,04,18,04,50,11.40
2021,04,18,04,51,11.40
2021,04,18,04,52,11.30
2021,04,18,04,53,11.30
2021,04,18,04,54,11.30
2021,04,18,04,55,11.30
2021,04,18,04,56,11.30
2021,04,18,04,57,11.30
2021,04,18,04,58,11.30
2021,04,18,04,59,11.30
2021,04,18,05,00,11.30
2021,04,18,05,01,11.30
2021,04,18,05,02,11.30
2021,04,18,05,03,11.30
2021,04,18,05,04,11.30
2021,04,18,05,05,11.30
2021,04,18,05,06,11.30
2021,04,18,05,07,11.30
2021,04,18,05,08,11.30
2021,04,18,05,09,11.30
2021,04,18,05,10,11.30
2021,04,18,05,11,11.30
2021,04,18,05,12,11.30
2021,04,18,05,13,11.30
2021,04,18,05,14,11.30
2021,04,18,05,15,11.20
2021,04,18,05,16,11.20
2021,04,18,05,17,11.20
2021,04,18,05,18,11.20
2021,04,18,05,19,11.20
2021,04,18,05,20,11.20
2021,04,18,05,21,11.20
2021,04,18,05,22,11.20
2021,04,18,05,23,11.20
2021,04,18,05,24,11.20
2021,04,18,05,25,11.10
2021,04,18,05,26,11.10
2021,04,18,05,27,11.10
2021,04,18,05,28,11.10
2021,04,18,05,29,11.10
2021,04,18,05,30,11.10
2021,04,18,05,31,11.10
2021,04,18,05,32,11.00
2021,04,18,05,33,11.00
2021,04,18,05,34,11.00
2021,04,18,05,35,10.90
2021,04,18,05,36,10.90
2021,04,18,05,37,10.90
2021,04,18,05,38,10.80
2021,04,18,05,39,10.80
2021,04,18,05,40,10.80
2021,04,18,05,41,10.80
2021,04,18,05,42,10.70
2021,04,18,05,43,10.70
2021,04,18,05,44,10.70
2021,04,18,05,45,10.60
2021,04,18,05,46,10.60
2021,04,18,05,47,10.50
2021,04,18,05,48,10.40
2021,04,18,05,49,10.40
2021,04,18,05,50,10.40
2021,04,18,05,51,10.30
2021,04,18,05,52,10.30
2021,04,18,05,53,10.30
2021,04,18,05,54,10.30
2021,04,18,05,55,10.30
2021,04,18,05,56,10.30
2021,04,18,05,57,10.30
2021,04,18,05,58,10.40
2021,04,18,05,59,10.40
2021,04,18,06,00,10.40
2021,04,18,06,01,10.40
2021,04,18,06,02,10.40
2021,04,18,06,03,10.40
2021,04,18,06,04,10.40
2021,04,18,06,05,10.40
2021,04,18,06,06,10.40
2021,04,18,06,07,10.40
2021,04,18,06,08,10.30
2021,04,18,06,09,10.30
2021,04,18,06,10,10.30
2021,04,18,06,11,10.30
2021,04,18,06,12,10.30
2021,04,18,06,13,10.40
2021,04,18,06,14,10.50
2021,04,18,06,15,10.60
2021,04,18,06,16,10.70
2021,04,18,06,17,10.90
2021,04,18,06,18,11.00
2021,04,18,06,19,11.10
2021,04,18,06,20,11.30
2021,04,18,06,21,11.40
2021,04,18,06,22,11.50
2021,04,18,06,23,11.50
2021,04,18,06,24,11.70
2021,04,18,06,25,11.70
2021,04,18,06,26,11.80
2021,04,18,06,27,11.90
2021,04,18,06,28,12.00
2021,04,18,06,29,12.10
2021,04,18,06,30,12.10
2021,04,18,06,31,12.20
2021,04,18,06,32,12.20
2021,04,18,06,33,12.30
2021,04,18,06,34,12.30
2021,04,18,06,35,12.30
2021,04,18,06,36,12.30
2021,04,18,06,37,12.30
2021,04,18,06,38,12.30
2021,04,18,06,39,12.30
2021,04,18,06,40,12.30
2021,04,18,06,41,12.20
2021,04,18,06,42,12.20
2021,04,18,06,43,12.20
2021,04,18,06,44,12.10
2021,04,18,06,45,12.10
2021,04,18,06,46,12.10
2021,04,18,06,47,12.10
2021,04,18,06,48,12.00
2021,04,18,06,49,11.90
2021,04,18,06,50,11.90
2021,04,18,06,51,11.70
2021,04,18,06,52,11.70
2021,04,18,06,53,11.50
2021,04,18,06,54,11.40
2021,04,18,06,55,11.30
2021,04,18,06,56,11.30
2021,04,18,06,57,11.20
2021,04,18,06,58,11.10
2021,04,18,06,59,11.10
2021,04,18,07,00,11.00
2021,04,18,07,01,11.00
2021,04,18,07,02,11.00
2021,04,18,07,03,10.90
2021,04,18,07,04,10.90
2021,04,18,07,05,11.00
2021,04,18,07,06,11.00
2021,04,18,07,07,11.10
2021,04,18,07,08,11.10
2021,04,18,07,09,11.10
2021,04,18,07,10,11.10
2021,04,18,07,11,11.10
2021,04,18,07,12,11.10
2021,04,18,07,13,11.10
2021,04,18,07,14,11.10
2021,04,18,07,15,11.10
2021,04,18,07,16,11.10
2021,04,18,07,17,11.10
2021,04,18,07,18,11.10
2021,04,18,07,19,11.10
2021,04,18,07,20,11.10
2021,04,18,07,21,11.00
2021,04,18,07,22,11.10
2021,04,18,07,23,11.10
2021,04,18,07,24,11.10
2021,04,18,07,25,11.10
2021,04,18,07,26,11.10
2021,04,18,07,27,11.20
2021,04,18,07,28,11.20
2021,04,18,07,29,11.30
2021,04,18,07,30,11.30
2021,04,18,07,31,11.30
2021,04,18,07,32,11.40
2021,04,18,07,33,11.40
2021,04,18,07,34,11.50
2021,04,18,07,35,11.50
2021,04,18,07,36,11.60
2021,04,18,07,37,11.60
2021,04,18,07,38,11.60
2021,04,18,07,39,11.60
2021,04,18,07,40,11.60
2021,04,18,07,41,11.70
2021,04,18,07,42,11.70
2021,04,18,07,43,11.70
2021,04,18,07,44,11.70
2021,04,18,07,45,11.70
2021,04,18,07,46,11.80
2021,04,18,07,47,11.80
2021,04,18,07,48,11.80
2021,04,18,07,49,11.80
2021,04,18,07,50,11.90
2021,04,18,07,51,11.90
2021,04,18,07,52,12.00
2021,04,18,07,53,12.10
2021,04,18,07,54,12.10
2021,04,18,07,55,12.20
2021,04,18,07,56,12.20
2021,04,18,07,57,12.30
2021,04,18,07,58,12.30
2021,04,18,07,59,12.40
2021,04,18,08,00,12.50
2021,04,18,08,01,12.60
2021,04,18,08,02,12.70
2021,04,18,08,03,12.70
2021,04,18,08,04,12.80
2021,04,18,08,05,12.90
2021,04,18,08,06,13.00
2021,04,18,08,07,13.00
2021,04,18,08,08,13.10
2021,04,18,08,09,13.20
2021,04,18,08,10,13.30
2021,04,18,08,11,13.30
2021,04,18,08,12,13.40
2021,04,18,08,13,13.40
2021,04,18,08,14,13.50
2021,04,18,08,15,13.50
2021,04,18,08,16,13.60
2021,04,18,08,17,13.60
2021,04,18,08,18,13.60
2021,04,18,08,19,13.60
2021,04,18,08,20,13.60
2021,04,18,08,21,13.60
2021,04,18,08,22,13.70
2021,04,18,08,23,13.70
2021,04,18,08,24,13.70
2021,04,18,08,25,13.70
2021,04,18,08,26,13.70
2021,04,18,08,27,13.70
2021,04,18,08,28,13.70
2021,04,18,08,29,13.70
2021,04,18,08,30,13.70
2021,04,18,08,31,13.70
2021,04,18,08,32,13.70
2021,04,18,08,33,13.70
2021,04,18,08,34,13.70
2021,04,18,08,35,13.80
2021,04,18,08,36,13.80
2021,04,18,08,37,13.80
2021,04,18,08,38,13.90
2021,04,18,08,39,13.90
2021,04,18,08,40,14.00
2021,04,18,08,41,14.00
2021,04,18,08,42,14.10
2021,04,18,08,43,14.10
2021,04,18,08,44,14.20
2021,04,18,08,45,14.20
2021,04,18,08,46,14.30
2021,04,18,08,47,14.30
2021,04,18,08,48,14.30
2021,04,18,08,49,14.30
2021,04,18,08,50,14.40
2021,04,18,08,51,14.40
2021,04,18,08,52,14.40
2021,04,18,08,53,14.50
2021,04,18,08,54,14.50
2021,04,18,08,55,14.60
2021,04,18,08,56,14.60
2021,04,18,08,57,14.70
2021,04,18,08,58,14.70
2021,04,18,08,59,14.70
2021,04,18,09,00,14.70
2021,04,18,09,01,14.70
2021,04,18,09,02,14.70
2021,04,18,09,03,14.70
2021,04,18,09,04,14.70
2021,04,18,09,05,14.70
2021,04,18,09,06,14.70
2021,04,18,09,07,14.70
2021,04,18,09,08,14.70
2021,04,18,09,09,14.70
2021,04,18,09,10,14.70
2021,04,18,09,11,14.70
2021,04,18,09,12,14.70
2021,04,18,09,13,14.80
2021,04,18,09,14,14.80
2021,04,18,09,15,14.80
2021,04,18,09,16,14.90
2021,04,18,09,17,14.90
2021,04,18,09,18,14.90
2021,04,18,09,19,14.90
2021,04,18,09,20,14.80
2021,04,18,09,21,14.80
2021,04,18,09,22,14.80
2021,04,18,09,23,14.90
2021,04,18,09,24,14.80
2021,04,18,09,25,14.90
2021,04,18,09,26,14.90
2021,04,18,09,27,14.90
2021,04,18,09,28,15.00
2021,04,18,09,29,15.00
2021,04,18,09,30,15.10
2021,04,18,09,31,15.20
2021,04,18,09,32,15.20
2021,04,18,09,33,15.30
2021,04,18,09,34,15.40
2021,04,18,09,35,15.40
2021,04,18,09,36,15.40
2021,04,18,09,37,15.50
2021,04,18,09,38,15.50
2021,04,18,09,39,15.60
2021,04,18,09,40,15.60
2021,04,18,09,41,15.60
2021,04,18,09,42,15.60
2021,04,18,09,43,15.60
2021,04,18,09,44,15.60
2021,04,18,09,45,15.50
2021,04,18,09,46,15.50
2021,04,18,09,47,15.40
2021,04,18,09,48,15.40
2021,04,18,09,49,15.40
2021,04,18,09,50,15.40
2021,04,18,09,51,15.40
2021,04,18,09,52,15.40
2021,04,18,09,53,15.40
2021,04,18,09,54,15.50
2021,04,18,09,55,15.60
2021,04,18,09,56,15.70
2021,04,18,09,57,15.70
2021,04,18,09,58,15.70
2021,04,18,09,59,15.70
2021,04,18,10,00,15.70
2021,04,18,10,01,15.70
2021,04,18,10,02,15.70
2021,04,18,10,03,15.70
2021,04,18,10,04,15.70
2021,04,18,10,05,15.70
2021,04,18,10,06,15.70
2021,04,18,10,07,15.70
2021,04,18,10,08,15.70
2021,04,18,10,09,15.70
2021,04,18,10,10,15.70
2021,04,18,10,11,15.70
2021,04,18,10,12,15.70
2021,04,18,10,13,15.80
2021,04,18,10,14,15.90
2021,04,18,10,15,15.90
2021,04,18,10,16,16.00
2021,04,18,10,17,16.10
2021,04,18,10,18,16.10
2021,04,18,10,19,16.20
2021,04,18,10,20,16.20
2021,04,18,10,21,16.30
2021,04,18,10,22,16.30
2021,04,18,10,23,16.40
2021,04,18,10,24,16.50
2021,04,18,10,25,16.60
2021,04,18,10,26,16.60
2021,04,18,10,27,16.70
2021,04,18,10,28,16.70
2021,04,18,10,29,16.70
2021,04,18,10,30,16.70
2021,04,18,10,31,16.80
2021,04,18,10,32,16.80
2021,04,18,10,33,16.80
2021,04,18,10,34,16.90
2021,04,18,10,35,16.90
2021,04,18,10,36,17.00
2021,04,18,10,37,17.10
2021,04,18,10,38,17.20
2021,04,18,10,39,17.20
2021,04,18,10,40,17.30
2021,04,18,10,41,17.40
2021,04,18,10,42,17.40
2021,04,18,10,43,17.30
2021,04,18,10,44,17.30
2021,04,18,10,45,17.30
2021,04,18,10,46,17.20
2021,04,18,10,47,17.20
2021,04,18,10,48,17.20
2021,04,18,10,49,17.20
2021,04,18,10,50,17.20
2021,04,18,10,51,17.20
2021,04,18,10,52,17.20
2021,04,18,10,53,17.20
2021,04,18,10,54,17.20
2021,04,18,10,55,17.10
2021,04,18,10,56,17.10
2021,04,18,10,57,17.10
2021,04,18,10,58,17.10
2021,04,18,10,59,17.00
2021,04,18,11,00,17.00
2021,04,18,11,01,16.90
2021,04,18,11,02,16.80
2021,04,18,11,03,16.70
2021,04,18,11,04,16.60
2021,04,18,11,05,16.40
2021,04,18,11,06,16.30
2021,04,18,11,07,16.10
2021,04,18,11,08,15.90
2021,04,18,11,09,15.80
2021,04,18,11,10,15.70
2021,04,18,11,11,15.60
2021,04,18,11,12,15.50
2021,04,18,11,13,15.50
2021,04,18,11,14,15.50
2021,04,18,11,15,15.50
2021,04,18,11,16,15.50
2021,04,18,11,17,15.50
2021,04,18,11,18,15.50
2021,04,18,11,19,15.50
2021,04,18,11,20,15.50
2021,04,18,11,21,15.60
2021,04,18,11,22,15.60
2021,04,18,11,23,15.60
2021,04,18,11,24,15.70
2021,04,18,11,25,15.70
2021,04,18,11,26,15.70
2021,04,18,11,27,15.70
2021,04,18,11,28,15.80
2021,04,18,11,29,15.80
2021,04,18,11,30,15.90
2021,04,18,11,31,16.00
2021,04,18,11,32,15.90
2021,04,18,11,33,16.00
2021,04,18,11,34,16.10
2021,04,18,11,35,16.20
2021,04,18,11,36,16.30
2021,04,18,11,37,16.30
2021,04,18,11,38,16.30
2021,04,18,11,39,16.40
2021,04,18,11,40,16.30
2021,04,18,11,41,16.30
2021,04,18,11,42,16.30
2021,04,18,11,43,16.40
2021,04,18,11,44,16.40
2021,04,18,11,45,16.40
2021,04,18,11,46,16.40
2021,04,18,11,47,16.40
2021,04,18,11,48,16.40
2021,04,18,11,49,16.40
2021,04,18,11,50,16.30
2021,04,18,11,51,16.40
2021,04,18,11,52,16.40
2021,04,18,11,53,16.40
2021,04,18,11,54,16.40
2021,04,18,11,55,16.50
2021,04,18,11,56,16.50
2021,04,18,11,57,16.50
2021,04,18,11,58,16.50
2021,04,18,11,59,16.50
2021,04,18,12,00,16.50
2021,04,18,12,01,16.40
2021,04,18,12,02,16.50
2021,04,18,12,03,16.50
2021,04,18,12,04,16.60
2021,04,18,12,05,16.60
2021,04,18,12,06,16.70
2021,04,18,12,07,16.70
2021,04,18,12,08,16.80
2021,04,18,12,09,16.80
2021,04,18,12,10,16.80
2021,04,18,12,11,16.90
2021,04,18,12,12,16.90
2021,04,18,12,13,16.90
2021,04,18,12,14,16.90
2021,04,18,12,15,16.80
2021,04,18,12,16,16.80
2021,04,18,12,17,16.70
2021,04,18,12,18,16.70
2021,04,18,12,19,16.70
2021,04,18,12,20,16.70
2021,04,18,12,21,16.70
2021,04,18,12,22,16.70
2021,04,18,12,23,16.80
2021,04,18,12,24,16.80
2021,04,18,12,25,16.90
2021,04,18,12,26,17.00
2021,04,18,12,27,17.00
2021,04,18,12,28,17.10
2021,04,18,12,29,17.20
2021,04,18,12,30,17.30
2021,04,18,12,31,17.30
2021,04,18,12,32,17.40
2021,04,18,12,33,17.50
2021,04,18,12,34,17.60
2021,04,18,12,35,17.70
2021,04,18,12,36,17.70
2021,04,18,12,37,17.80
2021,04,18,12,38,17.80
2021,04,18,12,39,17.90
2021,04,18,12,40,18.00
2021,04,18,12,41,18.10
2021,04,18,12,42,18.20
2021,04,18,12,43,18.20
2021,04,18,12,44,18.30
2021,04,18,12,45,18.30
2021,04,18,12,46,18.30
2021,04,18,12,47,18.30
2021,04,18,12,48,18.30
2021,04,18,12,49,18.30
2021,04,18,12,50,18.30
2021,04,18,12,51,18.30
2021,04,18,12,52,18.30
2021,04,18,12,53,18.30
2021,04,18,12,54,18.30
2021,04,18,12,55,18.30
2021,04,18,12,56,18.40
2021,04,18,12,57,18.40
2021,04,18,12,58,18.40
2021,04,18,12,59,18.40
2021,04,18,13,00,18.50
2021,04,18,13,01,18.50
2021,04,18,13,02,18.60
2021,04,18,13,03,18.60
2021,04,18,13,04,18.60
2021,04,18,13,05,18.70
2021,04,18,13,06,18.70
2021,04,18,13,07,18.70
2021,04,18,13,08,18.70
2021,04,18,13,09,18.70
2021,04,18,13,10,18.70
2021,04,18,13,11,18.80
2021,04,18,13,12,18.80
2021,04,18,13,13,18.80
2021,04,18,13,14,18.80
2021,04,18,13,15,18.80
2021,04,18,13,16,18.80
2021,04,18,13,17,18.70
2021,04,18,13,18,18.60
2021,04,18,13,19,18.60
2021,04,18,13,20,18.50
2021,04,18,13,21,18.40
2021,04,18,13,22,18.40
2021,04,18,13,23,18.30
2021,04,18,13,24,18.30
2021,04,18,13,25,18.30
2021,04,18,13,26,18.30
2021,04,18,13,27,18.30
2021,04,18,13,28,18.30
2021,04,18,13,29,18.40
2021,04,18,13,30,18.40
2021,04,18,13,31,18.40
2021,04,18,13,32,18.40
2021,04,18,13,33,18.50
2021,04,18,13,34,18.40
2021,04,18,13,35,18.40
2021,04,18,13,36,18.40
2021,04,18,13,37,18.40
2021,04,18,13,38,18.40
2021,04,18,13,39,18.50
2021,04,18,13,40,18.50
2021,04,18,13,41,18.60
2021,04,18,13,42,18.50
2021,04,18,13,43,18.50
2021,04,18,13,44,18.50
2021,04,18,13,45,18.60
2021,04,18,13,46,18.60
2021,04,18,13,47,18.50
2021,04,18,13,48,18.50
2021,04,18,13,49,18.40
2021,04,18,13,50,18.40
2021,04,18,13,51,18.40
2021,04,18,13,52,18.40
2021,04,18,13,53,18.30
2021,04,18,13,54,18.30
2021,04,18,13,55,18.30
2021,04,18,13,56,18.30
2021,04,18,13,57,18.40
2021,04,18,13,58,18.40
2021,04,18,13,59,18.40
2021,04,18,14,00,18.40
2021,04,18,14,01,18.40
2021,04,18,14,02,18.40
2021,04,18,14,03,18.50
2021,04,18,14,04,18.60
2021,04,18,14,05,18.60
2021,04,18,14,06,18.70
2021,04,18,14,07,18.70
2021,04,18,14,08,18.80
2021,04,18,14,09,18.80
2021,04,18,14,10,19.00
2021,04,18,14,11,19.10
2021,04,18,14,12,19.10
2021,04,18,14,13,19.20
2021,04,18,14,14,19.20
2021,04,18,14,15,19.20
2021,04,18,14,16,19.20
2021,04,18,14,17,19.20
2021,04,18,14,18,19.20
2021,04,18,14,19,19.30
2021,04,18,14,20,19.30
2021,04,18,14,21,19.30
2021,04,18,14,22,19.30
2021,04,18,14,23,19.30
2021,04,18,14,24,19.40
2021,04,18,14,25,19.40
2021,04,18,14,26,19.40
2021,04,18,14,27,19.40
2021,04,18,14,28,19.50
2021,04,18,14,29,19.50
2021,04,18,14,30,19.60
2021,04,18,14,31,19.60
2021,04,18,14,32,19.60
2021,04,18,14,33,19.70
2021,04,18,14,34,19.70
2021,04,18,14,35,19.70
2021,04,18,14,36,19.70
2021,04,18,14,37,19.70
2021,04,18,14,38,19.70
2021,04,18,14,39,19.60
2021,04,18,14,40,19.40
2021,04,18,14,41,19.30
2021,04,18,14,42,19.10
2021,04,18,14,43,18.90
2021,04,18,14,44,18.90
2021,04,18,14,45,18.90
2021,04,18,14,46,18.80
2021,04,18,14,47,18.80
2021,04,18,14,48,18.90
2021,04,18,14,49,18.90
2021,04,18,14,50,18.90
2021,04,18,14,51,19.00
2021,04,18,14,52,19.00
2021,04,18,14,53,18.90
2021,04,18,14,54,18.90
2021,04,18,14,55,18.90
2021,04,18,14,56,18.90
2021,04,18,14,57,18.90
2021,04,18,14,58,18.90
2021,04,18,14,59,18.90
2021,04,18,15,00,18.90
2021,04,18,15,01,18.90
2021,04,18,15,02,19.00
2021,04,18,15,03,19.10
2021,04,18,15,04,19.10
2021,04,18,15,05,19.30
2021,04,18,15,06,19.30
2021,04,18,15,07,19.40
2021,04,18,15,08,19.50
2021,04,18,15,09,19.60
2021,04,18,15,10,19.60
2021,04,18,15,11,19.70
2021,04,18,15,12,19.80
2021,04,18,15,13,19.90
2021,04,18,15,14,20.10
2021,04,18,15,15,20.20
2021,04,18,15,16,20.30
2021,04,18,15,17,20.40
2021,04,18,15,18,20.50
2021,04,18,15,19,20.60
2021,04,18,15,20,20.70
2021,04,18,15,21,20.70
2021,04,18,15,22,20.80
2021,04,18,15,23,20.80
2021,04,18,15,24,20.80
2021,04,18,15,25,20.70
2021,04,18,15,26,20.70
2021,04,18,15,27,20.80
2021,04,18,15,28,20.80
2021,04,18,15,29,20.80
2021,04,18,15,30,20.80
2021,04,18,15,31,20.90
2021,04,18,15,32,20.90
2021,04,18,15,33,21.00
2021,04,18,15,34,21.00
2021,04,18,15,35,21.00
2021,04,18,15,36,21.10
2021,04,18,15,37,21.10
2021,04,18,15,38,21.00
2021,04,18,15,39,21.10
2021,04,18,15,40,21.10
2021,04,18,15,41,21.10
2021,04,18,15,42,21.10
2021,04,18,15,43,21.00
2021,04,18,15,44,20.90
2021,04,18,15,45,20.70
2021,04,18,15,46,20.60
2021,04,18,15,47,20.40
2021,04,18,15,48,20.40
2021,04,18,15,49,20.30
2021,04,18,15,50,20.30
2021,04,18,15,51,20.20
2021,04,18,15,52,20.20
2021,04,18,15,53,20.20
2021,04,18,15,54,20.20
2021,04,18,15,55,20.20
2021,04,18,15,56,20.20
2021,04,18,15,57,20.30
2021,04,18,15,58,20.40
2021,04,18,15,59,20.50
2021,04,18,16,00,20.60
2021,04,18,16,01,20.60
2021,04,18,16,02,20.70
2021,04,18,16,03,20.80
2021,04,18,16,04,20.80
2021,04,18,16,05,20.90
2021,04,18,16,06,20.90
2021,04,18,16,07,21.00
2021,04,18,16,08,21.00
2021,04,18,16,09,21.00
2021,04,18,16,10,20.90
2021,04,18,16,11,20.90
2021,04,18,16,12,20.90
2021,04,18,16,13,20.90
2021,04,18,16,14,21.00
2021,04,18,16,15,21.00
2021,04,18,16,16,21.00
2021,04,18,16,17,21.10
2021,04,18,16,18,21.10
2021,04,18,16,19,21.10
2021,04,18,16,20,21.10
2021,04,18,16,21,21.10
2021,04,18,16,22,21.00
2021,04,18,16,23,20.90
2021,04,18,16,24,20.80
2021,04,18,16,25,20.70
2021,04,18,16,26,20.60
2021,04,18,16,27,20.50
2021,04,18,16,28,20.40
2021,04,18,16,29,20.30
2021,04,18,16,30,20.30
2021,04,18,16,31,20.20
2021,04,18,16,32,20.10
2021,04,18,16,33,20.10
2021,04,18,16,34,20.10
2021,04,18,16,35,20.10
2021,04,18,16,36,20.00
2021,04,18,16,37,20.10
2021,04,18,16,38,20.10
2021,04,18,16,39,20.00
2021,04,18,16,40,19.90
2021,04,18,16,41,19.90
2021,04,18,16,42,19.80
2021,04,18,16,43,19.70
2021,04,18,16,44,19.70
2021,04,18,16,45,19.60
2021,04,18,16,46,19.50
2021,04,18,16,47,19.40
2021,04,18,16,48,19.30
2021,04,18,16,49,19.30
2021,04,18,16,50,19.20
2021,04,18,16,51,19.20
2021,04,18,16,52,19.10
2021,04,18,16,53,19.10
2021,04,18,16,54,19.10
2021,04,18,16,55,19.10
2021,04,18,16,56,19.10
2021,04,18,16,57,19.10
2021,04,18,16,58,19.10
2021,04,18,16,59,19.10
2021,04,18,17,00,19.10
2021,04,18,17,01,19.20
2021,04,18,17,02,19.20
2021,04,18,17,03,19.30
2021,04,18,17,04,19.40
2021,04,18,17,05,19.40
2021,04,18,17,06,19.40
2021,04,18,17,07,19.40
2021,04,18,17,08,19.40
2021,04,18,17,09,19.30
2021,04,18,17,10,19.30
2021,04,18,17,11,19.30
2021,04,18,17,12,19.30
2021,04,18,17,13,19.40
2021,04,18,17,14,19.40
2021,04,18,17,15,19.40
2021,04,18,17,16,19.30
2021,04,18,17,17,19.30
2021,04,18,17,18,19.10
2021,04,18,17,19,19.00